Location: Ellingshausen
(50.5460°N, 10.4723°E)
Time: 20:40:34
(UTC+00:00)

Cosmos 2084 Rocket - Pass Details

Date: 18 January 2026
Orbit: 541 x 571 km, 62.8° (Epoch: 16 February)

Event Time Altitude Azimuth Distance (km) Brightness Sun altitude
Exits shadow 05:50:40 18° 299° (WNW) 1,418 4.8 -12.3°
Maximum altitude 05:53:28 45° 233° (SW) 780 3.8 -11.9°
Drops below altitude 10° 05:57:30 10° 161° (SSE) 1,870 6.6 -11.3°
Sets 05:59:47 0° 155° (SSE) 2,765 7.6 -10.9°
